Regional Weather Roundup
Issued by NWS

Home | Current Version | Previous Version | Graphics & Text | Print | Product List | Glossary On
Versions: 1 2 3 4 5 6 7 8 9 10 11 12 13 14 15 16 17 18 19 20 21 22 23 24 25 26 27 28 29 30 31 32 33 34 35 36 37 38 39 40 41 42 43 44 45 46 47 48 49 50
000
ASUS43 KFSD 261110
RWRSD

WEATHER ROUNDUP FOR SOUTH DAKOTA
NATIONAL WEATHER SERVICE SIOUX FALLS SD
600 AM CDT THU MAR 26 2015

NOTE: "FAIR" INDICATES FEW OR NO CLOUDS BELOW 12,000 FEET WITH NO
SIGNIFICANT WEATHER AND/OR OBSTRUCTIONS TO VISIBILITY.


SDZ001>005-009-010-012>017-261200-
NORTHWEST AND NORTH CENTRAL SOUTH DAKOTA

CITY           SKY/WX    TMP DP  RH WIND       PRES   REMARKS
BUFFALO          N/A     31  25  78 SE6       29.98F WCI  25
FAITH            N/A     29  21  72 S12       30.10F WCI  19
MOBRIDGE       CLOUDY    22  17  81 N3        30.16R
$$

SDZ012>016-024>037-041>051-057-063-072>074-261200-
SOUTHWEST AND SOUTH CENTRAL SOUTH DAKOTA

CITY           SKY/WX    TMP DP  RH WIND       PRES   REMARKS
RAPID CTY ARPT CLOUDY    32  26  78 CALM      30.09F
PIERRE         PTCLDY    19  14  81 CALM      30.18R
CUSTER         CLOUDY    28  21  75 W8        30.08S WCI  20
ELLSWORTH AFB  CLOUDY    36  26  66 SW5       30.08F
PHILIP         CLOUDY    19  15  84 CALM      30.14F
PINE RIDGE     CLOUDY    30  23  75 W5        30.12F WCI  25
SPEARFISH      CLOUDY    39  28  65 W14G22    30.07F
WINNER         FAIR      20  13  74 S5        30.18F WCI  13
$$

SDZ004>011-016>023-039-040-261200-
NORTHEAST SOUTH DAKOTA

CITY           SKY/WX    TMP DP  RH WIND       PRES   REMARKS
ABERDEEN       PTCLDY    25  19  78 NW7       30.19R WCI  17
WATERTOWN      CLEAR     27  23  85 NW9       30.13S WCI  18
SISSETON         N/A     24  23  96 N8        30.16R WCI  15
$$

SDZ017-020-022-023-036>040-048>070-261200-
SOUTHEAST SOUTH DAKOTA

CITY           SKY/WX    TMP DP  RH WIND       PRES   REMARKS
SIOUX FALLS    PTCLDY    25  19  78 W8        30.16F WCI  16
HURON          CLEAR     16  13  88 W7        30.19R WCI   6
CHAMBERLAIN    CLEAR     18  15  88 SW3       30.19S
MITCHELL       CLEAR     22  16  78 W9        30.21S WCI  12
YANKTON        CLEAR     21  16  79 NW6       30.21S WCI  14
$$

ABBREVIATIONS USED IN REMARKS
   TC - TEMPERATURE IN CELSIUS
  WCI - WIND CHILL INDEX
   HX - HEAT INDEX
  VSB - VISIBILITY




USA.gov is the U.S. government's official web portal to all federal, state and local government web resources and services.